Location: Newark
(53.5596°N, 1.2370°W)
Time: 20:14:08
(UTC+00:00)

CUTE-I - Visible Passes

Search period start: 15 December 2019 00:00
Search period end: 25 December 2019 00:00
Orbit: 811 x 824 km, 98.7° (Epoch: 14 December)

Date Brightness Start Highest point End Pass type
(mag) Time Alt. Az. Time Alt. Az. Time Alt. Az.
15 Dec ? 05:13:33 10° NE 05:17:08 18° E 05:20:42 10° SE visible
15 Dec ? 06:52:31 10° NNE 06:57:56 89° WNW 07:03:17 10° SSW visible
15 Dec ? 16:41:03 10° SE 16:46:14 52° ENE 16:51:28 10° N visible
15 Dec ? 18:21:45 10° SSW 18:26:31 32° W 18:31:20 10° NNW visible
16 Dec ? 04:53:17 10° ENE 04:55:21 12° E 04:57:24 10° ESE visible
16 Dec ? 06:31:07 10° NNE 06:36:29 65° ESE 06:41:47 10° S visible
16 Dec ? 16:20:03 10° SE 16:24:57 37° ENE 16:29:53 10° N visible
16 Dec ? 17:59:48 10° S 18:04:56 45° W 18:10:07 10° NNW visible
17 Dec ? 06:09:47 10° NNE 06:14:57 45° E 06:20:04 10° S visible
17 Dec ? 17:38:04 10° S 17:43:25 65° WSW 17:48:48 10° NNW visible
17 Dec ? 19:22:29 10° WSW 19:24:33 12° W 19:26:36 10° WNW visible
18 Dec ? 05:48:34 10° NNE 05:53:22 32° E 05:58:07 10° SSE visible
18 Dec ? 07:28:27 10° N 07:33:39 51° WNW 07:38:48 10° SW visible
18 Dec ? 17:16:34 10° SSE 17:21:58 90° E 17:27:23 10° NNW visible
18 Dec ? 18:59:12 10° SW 19:02:46 18° W 19:06:21 10° NW visible
19 Dec ? 05:27:32 10° NE 05:31:43 23° E 05:35:52 10° SE visible
19 Dec ? 07:06:56 10° NNE 07:12:18 72° WNW 07:17:37 10° SSW visible
19 Dec ? 16:55:15 10° SSE 17:00:34 65° ENE 17:05:55 10° NNW visible
19 Dec ? 18:36:40 10° SSW 18:41:03 25° W 18:45:29 10° NW visible
20 Dec ? 05:06:47 10° NE 05:09:59 16° E 05:13:09 10° ESE visible
20 Dec ? 06:45:29 10° NNE 06:50:53 82° ESE 06:56:14 10° SSW visible
20 Dec ? 16:34:08 10° SE 16:39:14 46° ENE 16:44:23 10° N visible
20 Dec ? 18:14:31 10° SSW 18:19:26 36° W 18:24:23 10° NNW visible
21 Dec ? 04:47:10 10° ENE 04:48:11 10° E 04:49:11 10° E visible
21 Dec ? 06:24:06 10° NNE 06:29:25 58° ESE 06:34:40 10° S visible
21 Dec ? 17:52:38 10° S 17:57:52 51° W 18:03:07 10° NNW visible
22 Dec ? 06:02:48 10° NNE 06:07:52 40° E 06:12:52 10° SSE visible
22 Dec ? 17:31:00 10° S 17:36:21 73° WSW 17:41:46 10° NNW visible
22 Dec ? 19:14:42 10° WSW 19:17:23 14° W 19:20:04 10° NW visible
23 Dec ? 05:41:38 10° NNE 05:46:15 28° E 05:50:49 10° SSE visible
23 Dec ? 07:21:23 10° N 07:26:38 57° WNW 07:31:50 10° SW visible
23 Dec ? 17:09:32 10° SSE 17:14:56 81° ENE 17:20:20 10° NNW visible
23 Dec ? 18:51:44 10° SW 18:55:37 20° W 18:59:31 10° NW visible
24 Dec ? 05:20:40 10° NE 05:24:34 20° E 05:28:27 10° SE visible
24 Dec ? 06:59:53 10° NNE 07:05:16 80° WNW 07:10:36 10° SSW visible
24 Dec ? 16:48:18 10° SE 16:53:33 58° ENE 16:58:50 10° N visible
24 Dec ? 18:29:21 10° SSW 18:33:56 28° W 18:38:33 10° NNW visible
